Location: Street
(51.1247°N, 2.7429°W)
Time: 09:39:32
(UTC+01:00)

UWE-3 - Pass Details

Date: 02 April 2023
Orbit: 576 x 669 km, 97.7° (Epoch: 02 June)

Event Time Altitude Azimuth Distance (km) Brightness Sun altitude
Rises 04:26:30 0° 12° (NNE) 2,989 ? -20.7°
Reaches altitude 10° 04:28:46 10° 12° (NNE) 2,060 ? -20.4°
Maximum altitude 04:33:15 80° 286° (WNW) 651 ? -19.9°
Enters shadow 04:34:38 44° 206° (SSW) 881 ? -19.7°
